Time,TemperatureF,DewpointF,PressureIn,WindDirection,WindDirectionDegrees,WindSpeedMPH,WindSpeedGustMPH,Humidity,HourlyPrecipIn,Conditions,Clouds,dailyrainin,SoftwareType,DateUTC
2013-05-06 00:02:00,49.0,48.0,30.11,NNE,27,0.0,0.0,95,0.00,,,0.00,,2013-05-06 05:02:00,
2013-05-06 00:12:00,49.0,48.0,30.11,NNE,27,0.0,0.0,95,0.00,,,0.00,,2013-05-06 05:12:00,
2013-05-06 00:22:00,48.0,47.0,30.11,NNE,27,0.0,0.0,95,0.00,,,0.00,,2013-05-06 05:22:00,
2013-05-06 00:32:00,48.0,47.0,30.11,NNE,27,0.0,0.0,96,0.00,,,0.00,,2013-05-06 05:32:00,
2013-05-06 00:42:00,48.0,47.0,30.11,NNE,27,0.0,0.0,96,0.00,,,0.00,,2013-05-06 05:42:00,
2013-05-06 00:52:00,48.0,47.0,30.11,NNE,27,0.0,0.0,96,0.00,,,0.00,,2013-05-06 05:52:00,
2013-05-06 01:02:00,48.0,47.0,30.12,NNE,27,0.0,0.0,96,0.00,,,0.00,,2013-05-06 06:02:00,
2013-05-06 01:12:00,48.0,47.0,30.12,NNE,27,0.0,0.0,96,0.00,,,0.00,,2013-05-06 06:12:00,
2013-05-06 01:21:00,48.0,47.0,30.11,NNE,27,0.0,0.0,97,0.00,,,0.00,,2013-05-06 06:21:00,
2013-05-06 01:32:00,49.0,48.0,30.11,NNE,27,0.0,0.0,97,0.00,,,0.00,,2013-05-06 06:32:00,
2013-05-06 01:42:00,49.0,48.0,30.11,NNE,27,0.0,0.0,97,0.00,,,0.00,,2013-05-06 06:42:00,
2013-05-06 01:52:00,49.0,48.0,30.11,NNE,27,0.0,0.0,97,0.00,,,0.00,,2013-05-06 06:52:00,
2013-05-06 02:01:00,49.0,48.0,30.11,NNE,27,0.0,0.0,97,0.00,,,0.00,,2013-05-06 07:01:00,
2013-05-06 02:11:00,49.0,48.0,30.11,NNE,27,0.0,0.0,97,0.00,,,0.00,,2013-05-06 07:11:00,
2013-05-06 02:22:00,49.0,48.0,30.11,NNE,27,0.0,0.0,97,0.00,,,0.00,,2013-05-06 07:22:00,
2013-05-06 02:31:00,48.0,47.0,30.10,NNE,27,0.0,0.0,97,0.00,,,0.00,,2013-05-06 07:31:00,
2013-05-06 02:42:00,48.0,47.0,30.10,NNE,27,0.0,0.0,97,0.00,,,0.00,,2013-05-06 07:42:00,
2013-05-06 02:52:00,47.0,46.0,30.10,NNE,27,0.0,0.0,97,0.00,,,0.00,,2013-05-06 07:52:00,
2013-05-06 03:02:00,47.0,46.0,30.10,NNE,27,0.0,0.0,97,0.00,,,0.00,,2013-05-06 08:02:00,
2013-05-06 03:12:00,47.0,46.0,30.10,NNE,27,0.0,0.0,97,0.00,,,0.00,,2013-05-06 08:12:00,
2013-05-06 03:22:00,47.0,46.0,30.10,NNE,27,0.0,0.0,97,0.00,,,0.00,,2013-05-06 08:22:00,
2013-05-06 03:31:00,47.0,46.0,30.10,NNE,27,0.0,0.0,98,0.00,,,0.00,,2013-05-06 08:31:00,
2013-05-06 03:41:00,47.0,46.0,30.10,NNE,27,0.0,0.0,98,0.00,,,0.00,,2013-05-06 08:41:00,
2013-05-06 03:52:00,46.0,45.0,30.10,NNE,27,0.0,0.0,98,0.00,,,0.00,,2013-05-06 08:52:00,
2013-05-06 04:01:00,46.0,45.0,30.10,NNE,27,0.0,0.0,98,0.00,,,0.00,,2013-05-06 09:01:00,
2013-05-06 04:11:00,46.0,45.0,30.10,NNE,27,0.0,0.0,98,0.00,,,0.00,,2013-05-06 09:11:00,
2013-05-06 04:22:00,46.0,45.0,30.10,NNE,27,0.0,0.0,98,0.00,,,0.00,,2013-05-06 09:22:00,
2013-05-06 04:32:00,46.0,45.0,30.10,NNE,27,0.0,0.0,98,0.00,,,0.00,,2013-05-06 09:32:00,
2013-05-06 04:42:00,46.0,45.0,30.10,NNE,27,0.0,0.0,98,0.00,,,0.00,,2013-05-06 09:42:00,
2013-05-06 04:53:00,46.0,45.0,30.10,NNE,27,0.0,0.0,98,0.00,,,0.00,,2013-05-06 09:53:00,
2013-05-06 05:02:00,45.0,44.0,30.10,NNE,27,0.0,0.0,98,0.00,,,0.00,,2013-05-06 10:02:00,
2013-05-06 05:12:00,45.0,44.0,30.10,NNE,27,0.0,0.0,98,0.00,,,0.00,,2013-05-06 10:12:00,
2013-05-06 05:22:00,45.0,44.0,30.10,NNE,27,0.0,0.0,98,0.00,,,0.00,,2013-05-06 10:22:00,
2013-05-06 05:33:00,46.0,46.0,30.10,NNE,27,0.0,0.0,99,0.00,,,0.00,,2013-05-06 10:33:00,
2013-05-06 05:41:00,46.0,46.0,30.10,NNE,27,0.0,0.0,99,0.00,,,0.00,,2013-05-06 10:41:00,
2013-05-06 05:52:00,46.0,46.0,30.11,NNE,27,0.0,0.0,99,0.00,,,0.00,,2013-05-06 10:52:00,
2013-05-06 06:02:00,46.0,46.0,30.11,NNE,27,0.0,0.0,99,0.00,,,0.00,,2013-05-06 11:02:00,
2013-05-06 06:12:00,46.0,46.0,30.11,NNE,27,0.0,0.0,99,0.00,,,0.00,,2013-05-06 11:12:00,
2013-05-06 06:22:00,46.0,46.0,30.11,NNE,27,0.0,0.0,99,0.00,,,0.00,,2013-05-06 11:22:00,
2013-05-06 06:31:00,46.0,46.0,30.11,NNE,27,0.0,0.0,99,0.00,,,0.00,,2013-05-06 11:31:00,
2013-05-06 06:42:00,46.0,46.0,30.11,NNE,27,0.0,0.0,99,0.00,,,0.00,,2013-05-06 11:42:00,
2013-05-06 06:52:00,46.0,46.0,30.12,NNE,27,0.0,0.0,99,0.00,,,0.00,,2013-05-06 11:52:00,
2013-05-06 07:01:00,46.0,46.0,30.12,NNE,27,0.0,0.0,99,0.00,,,0.00,,2013-05-06 12:01:00,
2013-05-06 07:12:00,46.0,46.0,30.12,NNE,27,0.0,0.0,99,0.00,,,0.00,,2013-05-06 12:12:00,
2013-05-06 07:21:00,46.0,46.0,30.12,NNE,27,0.0,0.0,99,0.00,,,0.00,,2013-05-06 12:21:00,
2013-05-06 07:32:00,49.0,49.0,30.14,NNE,27,0.0,0.0,99,0.00,,,0.00,,2013-05-06 12:32:00,
2013-05-06 07:42:00,49.0,49.0,30.14,NNE,27,0.0,0.0,99,0.00,,,0.00,,2013-05-06 12:42:00,
2013-05-06 07:52:00,49.0,49.0,30.14,NNE,27,0.0,0.0,99,0.00,,,0.00,,2013-05-06 12:52:00,
2013-05-06 08:01:00,53.0,52.0,30.13,NW,304,1.0,3.0,97,0.00,,,0.00,,2013-05-06 13:01:00,
2013-05-06 08:11:00,53.0,52.0,30.13,NW,304,1.0,3.0,97,0.00,,,0.00,,2013-05-06 13:11:00,
2013-05-06 08:21:00,55.0,53.0,30.13,WNW,285,1.0,3.0,92,0.00,,,0.00,,2013-05-06 13:21:00,
2013-05-06 08:32:00,55.0,53.0,30.13,WNW,285,1.0,3.0,92,0.00,,,0.00,,2013-05-06 13:32:00,
2013-05-06 08:42:00,55.0,53.0,30.13,WNW,285,1.0,3.0,92,0.00,,,0.00,,2013-05-06 13:42:00,
2013-05-06 08:52:00,55.0,53.0,30.13,WNW,285,1.0,3.0,92,0.00,,,0.00,,2013-05-06 13:52:00,
2013-05-06 09:01:00,60.0,52.0,30.10,WNW,292,2.0,6.0,75,0.00,,,0.00,,2013-05-06 14:01:00,
2013-05-06 09:11:00,60.0,52.0,30.10,WNW,292,2.0,6.0,75,0.00,,,0.00,,2013-05-06 14:11:00,
2013-05-06 09:21:00,60.0,52.0,30.10,WNW,292,2.0,6.0,75,0.00,,,0.00,,2013-05-06 14:21:00,
2013-05-06 09:32:00,63.0,51.0,30.09,NW,306,3.0,8.0,66,0.00,,,0.00,,2013-05-06 14:32:00,
2013-05-06 09:42:00,63.0,51.0,30.09,NW,306,3.0,8.0,66,0.00,,,0.00,,2013-05-06 14:42:00,
2013-05-06 09:51:00,63.0,51.0,30.09,NW,306,3.0,8.0,66,0.00,,,0.00,,2013-05-06 14:51:00,
2013-05-06 10:01:00,66.0,52.0,30.07,NW,326,1.0,6.0,61,0.00,,,0.00,,2013-05-06 15:01:00,
2013-05-06 10:11:00,66.0,52.0,30.07,NW,326,1.0,6.0,61,0.00,,,0.00,,2013-05-06 15:11:00,
2013-05-06 10:21:00,66.0,52.0,30.07,WNW,290,2.0,8.0,60,0.00,,,0.00,,2013-05-06 15:21:00,
2013-05-06 10:33:00,67.0,51.0,30.06,WNW,285,3.0,10.0,56,0.00,,,0.00,,2013-05-06 15:33:00,
2013-05-06 10:42:00,67.0,51.0,30.06,WNW,285,3.0,10.0,56,0.00,,,0.00,,2013-05-06 15:42:00,
2013-05-06 10:53:00,67.0,51.0,30.06,WNW,285,3.0,10.0,56,0.00,,,0.00,,2013-05-06 15:53:00,
2013-05-06 11:03:00,68.0,52.0,30.05,SW,233,1.0,8.0,57,0.00,,,0.00,,2013-05-06 16:03:00,
2013-05-06 11:13:00,68.0,52.0,30.05,SW,233,1.0,8.0,57,0.00,,,0.00,,2013-05-06 16:13:00,
2013-05-06 11:23:00,69.0,51.0,30.05,West,260,3.0,9.0,53,0.00,,,0.00,,2013-05-06 16:23:00,
2013-05-06 11:32:00,68.0,50.0,30.05,WNW,294,3.0,12.0,52,0.00,,,0.00,,2013-05-06 16:32:00,
2013-05-06 11:40:00,70.0,52.0,30.03,NW,310,2.0,9.0,53,0.00,,,0.00,,2013-05-06 16:40:00,
2013-05-06 11:41:00,68.0,50.0,30.05,WNW,294,3.0,12.0,52,0.00,,,0.00,,2013-05-06 16:41:00,
2013-05-06 11:52:00,69.0,52.0,30.04,WNW,285,3.0,9.0,54,0.00,,,0.00,,2013-05-06 16:52:00,
2013-05-06 12:03:00,70.0,52.0,30.03,NW,310,2.0,9.0,53,0.00,,,0.00,,2013-05-06 17:03:00,
2013-05-06 12:12:00,70.0,52.0,30.03,NW,310,2.0,9.0,53,0.00,,,0.00,,2013-05-06 17:12:00,
2013-05-06 12:23:00,70.0,52.0,30.03,NW,310,2.0,9.0,53,0.00,,,0.00,,2013-05-06 17:23:00,
2013-05-06 12:31:00,70.0,52.0,30.03,NW,310,2.0,9.0,53,0.00,,,0.00,,2013-05-06 17:31:00,
2013-05-06 12:52:00,71.0,53.0,30.02,WNW,282,5.0,9.0,53,0.00,,,0.00,,2013-05-06 17:52:00,
2013-05-06 13:01:00,72.0,55.0,30.01,NW,311,5.0,10.0,56,0.00,,,0.00,,2013-05-06 18:01:00,
2013-05-06 13:12:00,72.0,55.0,30.01,NW,311,5.0,10.0,56,0.00,,,0.00,,2013-05-06 18:12:00,
2013-05-06 13:21:00,72.0,55.0,30.01,NW,311,5.0,10.0,56,0.00,,,0.00,,2013-05-06 18:21:00,
2013-05-06 13:31:00,73.0,55.0,30.00,WSW,247,0.0,7.0,54,0.00,,,0.00,,2013-05-06 18:31:00,
2013-05-06 13:43:00,73.0,55.0,30.00,WSW,247,0.0,7.0,54,0.00,,,0.00,,2013-05-06 18:43:00,
2013-05-06 13:52:00,73.0,57.0,29.99,NW,308,1.0,8.0,57,0.00,,,0.00,,2013-05-06 18:52:00,
2013-05-06 14:01:00,73.0,53.0,29.99,NW,309,3.0,8.0,50,0.00,,,0.00,,2013-05-06 19:01:00,
2013-05-06 14:11:00,73.0,53.0,29.99,NW,309,3.0,8.0,50,0.00,,,0.00,,2013-05-06 19:11:00,
2013-05-06 14:22:00,73.0,54.0,29.98,NNE,18,1.0,12.0,51,0.00,,,0.00,,2013-05-06 19:22:00,
2013-05-06 14:32:00,74.0,55.0,29.98,West,270,2.0,5.0,52,0.00,,,0.00,,2013-05-06 19:32:00,
2013-05-06 14:41:00,74.0,55.0,29.98,West,270,2.0,5.0,52,0.00,,,0.00,,2013-05-06 19:41:00,
2013-05-06 14:52:00,74.0,54.0,29.97,NW,325,3.0,7.0,49,0.00,,,0.00,,2013-05-06 19:52:00,
2013-05-06 15:02:00,75.0,56.0,29.96,NW,314,1.0,10.0,51,0.00,,,0.00,,2013-05-06 20:02:00,
2013-05-06 15:11:00,75.0,56.0,29.96,NW,314,1.0,10.0,51,0.00,,,0.00,,2013-05-06 20:11:00,
2013-05-06 15:21:00,76.0,55.0,29.95,NNW,327,1.0,7.0,49,0.00,,,0.00,,2013-05-06 20:21:00,
2013-05-06 15:32:00,76.0,55.0,29.94,SW,229,1.0,7.0,48,0.00,,,0.00,,2013-05-06 20:32:00,
2013-05-06 15:42:00,76.0,55.0,29.94,SW,229,1.0,7.0,48,0.00,,,0.00,,2013-05-06 20:42:00,
2013-05-06 15:52:00,76.0,55.0,29.94,NW,325,3.0,8.0,49,0.00,,,0.00,,2013-05-06 20:52:00,
2013-05-06 16:01:00,76.0,54.0,29.93,WNW,296,3.0,9.0,47,0.00,,,0.00,,2013-05-06 21:01:00,
2013-05-06 16:11:00,76.0,54.0,29.93,WNW,296,3.0,9.0,47,0.00,,,0.00,,2013-05-06 21:11:00,
2013-05-06 16:21:00,76.0,56.0,29.92,NW,309,3.0,9.0,50,0.00,,,0.00,,2013-05-06 21:21:00,
2013-05-06 16:32:00,77.0,58.0,29.91,North,6,2.0,9.0,52,0.00,,,0.00,,2013-05-06 21:32:00,
2013-05-06 16:42:00,77.0,58.0,29.91,North,6,2.0,9.0,52,0.00,,,0.00,,2013-05-06 21:42:00,
2013-05-06 16:53:00,77.0,55.0,29.91,WNW,289,2.0,8.0,47,0.00,,,0.00,,2013-05-06 21:53:00,
2013-05-06 17:03:00,77.0,56.0,29.90,SW,225,3.0,6.0,49,0.00,,,0.00,,2013-05-06 22:03:00,
2013-05-06 17:12:00,77.0,56.0,29.90,SW,225,3.0,6.0,49,0.00,,,0.00,,2013-05-06 22:12:00,
2013-05-06 17:22:00,77.0,56.0,29.90,North,349,3.0,8.0,49,0.00,,,0.00,,2013-05-06 22:22:00,
2013-05-06 17:33:00,77.0,56.0,29.90,North,349,4.0,6.0,48,0.00,,,0.00,,2013-05-06 22:33:00,
2013-05-06 17:45:00,77.0,56.0,29.90,North,349,4.0,6.0,48,0.00,,,0.00,,2013-05-06 22:45:00,
2013-05-06 17:52:00,76.0,56.0,29.90,North,4,1.0,5.0,50,0.00,,,0.00,,2013-05-06 22:52:00,
2013-05-06 18:03:00,76.0,56.0,29.90,North,4,1.0,5.0,50,0.00,,,0.00,,2013-05-06 23:03:00,
2013-05-06 18:12:00,76.0,56.0,29.90,North,4,1.0,5.0,50,0.00,,,0.00,,2013-05-06 23:12:00,
2013-05-06 18:22:00,76.0,56.0,29.90,North,359,2.0,7.0,50,0.00,,,0.00,,2013-05-06 23:22:00,
2013-05-06 18:31:00,75.0,56.0,29.91,West,270,0.0,7.0,52,0.00,,,0.00,,2013-05-06 23:31:00,
2013-05-06 18:42:00,75.0,56.0,29.91,West,270,0.0,7.0,52,0.00,,,0.00,,2013-05-06 23:42:00,
2013-05-06 18:52:00,75.0,56.0,29.91,NNW,344,1.0,7.0,52,0.00,,,0.00,,2013-05-06 23:52:00,
2013-05-06 19:01:00,75.0,57.0,29.92,WNW,286,0.0,3.0,54,0.00,,,0.00,,2013-05-07 00:01:00,
2013-05-06 19:11:00,75.0,57.0,29.92,WNW,286,0.0,3.0,54,0.00,,,0.00,,2013-05-07 00:11:00,
2013-05-06 19:21:00,75.0,57.0,29.92,NW,318,0.0,2.0,54,0.00,,,0.00,,2013-05-07 00:21:00,
2013-05-06 19:31:00,74.0,57.0,29.93,NW,318,0.0,0.0,55,0.00,,,0.00,,2013-05-07 00:31:00,
2013-05-06 19:41:00,74.0,57.0,29.93,NW,318,0.0,0.0,55,0.00,,,0.00,,2013-05-07 00:41:00,
2013-05-06 19:51:00,74.0,57.0,29.93,NW,318,0.0,0.0,55,0.00,,,0.00,,2013-05-07 00:51:00,
2013-05-06 20:01:00,71.0,57.0,29.94,NW,318,0.0,0.0,61,0.00,,,0.00,,2013-05-07 01:01:00,
2013-05-06 20:11:00,71.0,57.0,29.94,NW,318,0.0,0.0,61,0.00,,,0.00,,2013-05-07 01:11:00,
2013-05-06 20:21:00,70.0,57.0,29.95,NW,318,0.0,0.0,63,0.00,,,0.00,,2013-05-07 01:21:00,
2013-05-06 20:32:00,67.0,56.0,29.96,NW,318,0.0,0.0,69,0.00,,,0.00,,2013-05-07 01:32:00,
2013-05-06 20:42:00,67.0,56.0,29.96,NW,318,0.0,0.0,69,0.00,,,0.00,,2013-05-07 01:42:00,
2013-05-06 20:52:00,66.0,56.0,29.97,NW,318,0.0,0.0,71,0.00,,,0.00,,2013-05-07 01:52:00,
2013-05-06 21:02:00,66.0,57.0,29.98,NW,318,0.0,0.0,74,0.00,,,0.00,,2013-05-07 02:02:00,
2013-05-06 21:11:00,66.0,57.0,29.98,NW,318,0.0,0.0,74,0.00,,,0.00,,2013-05-07 02:11:00,
2013-05-06 21:21:00,65.0,58.0,29.99,NW,318,0.0,0.0,77,0.00,,,0.00,,2013-05-07 02:21:00,
2013-05-06 21:31:00,64.0,58.0,30.00,NW,318,0.0,0.0,80,0.00,,,0.00,,2013-05-07 02:31:00,
2013-05-06 21:40:00,64.0,59.0,30.01,NW,318,0.0,0.0,83,0.00,,,0.00,,2013-05-07 02:40:00,
2013-05-06 21:41:00,64.0,58.0,30.00,NW,318,0.0,0.0,80,0.00,,,0.00,,2013-05-07 02:41:00,
2013-05-06 21:52:00,64.0,58.0,30.01,NW,318,0.0,0.0,80,0.00,,,0.00,,2013-05-07 02:52:00,
2013-05-06 22:01:00,64.0,59.0,30.01,NW,318,0.0,0.0,83,0.00,,,0.00,,2013-05-07 03:01:00,
2013-05-06 22:11:00,64.0,59.0,30.01,NW,318,0.0,0.0,83,0.00,,,0.00,,2013-05-07 03:11:00,
2013-05-06 22:21:00,64.0,59.0,30.01,NW,318,0.0,0.0,83,0.00,,,0.00,,2013-05-07 03:21:00,
2013-05-06 22:32:00,64.0,59.0,30.01,NW,318,0.0,0.0,83,0.00,,,0.00,,2013-05-07 03:32:00,
2013-05-06 22:53:00,63.0,59.0,30.03,NW,318,0.0,0.0,88,0.00,,,0.00,,2013-05-07 03:53:00,
2013-05-06 23:03:00,63.0,59.0,30.03,NW,318,0.0,0.0,88,0.00,,,0.00,,2013-05-07 04:03:00,
2013-05-06 23:12:00,63.0,59.0,30.03,NW,318,0.0,0.0,88,0.00,,,0.00,,2013-05-07 04:12:00,
2013-05-06 23:23:00,62.0,59.0,30.03,NW,318,0.0,0.0,91,0.00,,,0.00,,2013-05-07 04:23:00,
2013-05-06 23:33:00,61.0,59.0,30.03,NW,318,0.0,0.0,92,0.00,,,0.00,,2013-05-07 04:33:00,
2013-05-06 23:42:00,61.0,59.0,30.03,NW,318,0.0,0.0,92,0.00,,,0.00,,2013-05-07 04:42:00,
2013-05-06 23:52:00,60.0,58.0,30.03,NW,318,0.0,0.0,93,0.00,,,0.00,,2013-05-07 04:52:00,